CW9455 Weather Reports


Display with metric or nautical units.
time (UTC)temp
F
wind
direction
speed
MPH
gust
MPH
rain 1hr
in
rain 24hr
in
rain mn
in
humidity
%
barometer
mb
20260503033529 49 14 1.0 3.0 0.00 0.00 0.00 72 1009.2
20260503033034 49 58 2.0 3.0 0.00 0.00 0.00 72 1009.0
20260503032529 49 49 2.0 3.0 0.00 0.00 0.00 72 1008.9
20260503032029 49 42 1.0 3.0 0.00 0.00 0.00 72 1009.2
20260503031529 49 44 0.0 3.0 0.00 0.00 0.00 72 1009.3
20260503031030 49 51 0.0 2.0 0.00 0.00 0.00 71 1009.4
20260503030753 49 51 0.0 2.0 0.00 0.00 0.00 71 1009.4
20260503030030 48 38 1.0 2.0 0.00 0.00 0.00 71 1009.4
20260503025525 48 38 2.0 3.0 0.00 0.00 0.00 70 1009.5
20260503025025 48 71 2.0 3.0 0.00 0.00 0.00 70 1009.3
20260503024524 49 74 2.0 3.0 0.00 0.00 0.00 70 1009.1
20260503024024 49 92 2.0 3.0 0.00 0.00 0.00 70 1009.1
20260503023525 49 101 2.0 3.0 0.00 0.00 0.00 69 1009.2
20260503023025 49 75 2.0 4.0 0.00 0.00 0.00 69 1009.2
20260503022524 49 82 2.0 4.0 0.00 0.00 0.00 69 1009.2
20260503022025 49 74 2.0 4.0 0.00 0.00 0.00 69 1009.3
20260503021526 49 74 2.0 4.0 0.00 0.00 0.00 68 1009.2
20260503021026 49 86 2.0 4.0 0.00 0.00 0.00 68 1009.2
20260503020757 50 67 2.0 4.0 0.00 0.00 0.00 68 1009.3
20260503020243 50 81 1.0 4.0 0.00 0.00 0.00 68 1009.3
20260503015746 51 78 0.0 2.0 0.00 0.00 0.00 68 1009.4
20260503015250 51 59 0.0 0.0 0.00 0.00 0.00 68 1009.5
20260503014522 51 59 1.0 3.0 0.00 0.00 0.00 67 1009.5
20260503014517 51 59 1.0 3.0 0.00 0.00 0.00 67 1009.5
20260503013522 51 142 0.0 0.0 0.00 0.00 0.00 67 1009.5
20260503013021 51 198 0.0 0.0 0.00 0.00 0.00 67 1009.4
20260503012743 51 198 0.0 0.0 0.00 0.00 0.00 67 1009.3
20260503012020 51 198 0.0 0.0 0.00 0.00 0.00 67 1009.4
20260503011518 51 198 0.0 0.0 0.00 0.00 0.00 67 1009.4
20260503011231 52 198 0.0 0.0 0.00 0.00 0.00 67 1009.3
20260503011113 51 198 0.0 0.0 0.00 0.00 0.00 67 1009.3
20260503010016 52 198 0.0 2.0 0.00 0.00 0.00 67 1009.4
20260503005508 52 198 1.0 3.0 0.00 0.00 0.00 67 1009.2
20260503005003 52 203 2.0 4.0 0.00 0.00 0.00 67 1009.2
20260503004457 52 205 2.0 4.0 0.00 0.00 0.00 66 1009.1
20260503003950 52 194 2.0 4.0 0.00 0.00 0.00 66 1009.1
20260503003445 52 202 2.0 4.0 0.00 0.00 0.00 65 1009.0
20260503003205 52 213 1.0 4.0 0.00 0.00 0.00 65 1009.0
20260503002433 53 194 1.0 3.0 0.00 0.00 0.00 64 1009.0
20260503001927 53 211 0.0 2.0 0.00 0.00 0.00 63 1009.0
20260503001639 53 249 0.0 1.0 0.00 0.00 0.00 63 1009.0
20260503000915 53 249 1.0 2.0 0.00 0.00 0.00 63 1008.8
20260503000408 53 249 1.0 2.0 0.00 0.00 0.00 63 1008.6
20260502235901 53 249 1.0 3.0 0.00 0.00 0.00 63 1008.7
20260502235355 53 249 1.0 3.0 0.00 0.00 0.00 63 1008.8
20260502234848 53 223 0.0 3.0 0.00 0.00 0.00 63 1008.8
20260502234342 53 223 1.0 3.0 0.00 0.00 0.00 63 1008.7
20260502233837 54 205 1.0 3.0 0.00 0.00 0.00 63 1008.8
20260502233331 54 252 2.0 3.0 0.00 0.00 0.00 62 1008.8
20260502233053 54 242 2.0 3.0 0.00 0.00 0.00 62 1008.8
20260502232540 54 212 2.0 4.0 0.00 0.00 0.00 62 1008.8
20260502232035 54 223 2.0 4.0 0.00 0.00 0.00 62 1008.8
20260502231312 54 234 2.0 4.0 0.00 0.00 0.00 62 1008.9
20260502230800 54 243 1.0 3.0 0.00 0.00 0.00 62 1008.9
20260502230524 54 236 1.0 2.0 0.00 0.00 0.00 62 1008.9
20260502225749 54 236 1.0 3.0 0.00 0.00 0.00 62 1008.9
20260502225243 54 222 1.0 3.0 0.00 0.00 0.00 62 1008.9
20260502224737 54 217 1.0 4.0 0.00 0.00 0.00 62 1008.8
20260502224231 54 260 2.0 6.0 0.00 0.00 0.00 62 1008.9
20260502223725 54 274 3.0 6.0 0.00 0.00 0.00 62 1008.9
20260502223224 54 252 3.0 7.0 0.00 0.00 0.00 62 1008.9
20260502222713 54 228 4.0 7.0 0.00 0.00 0.00 62 1008.8
20260502222207 54 242 4.0 8.0 0.00 0.00 0.00 62 1008.7
20260502221701 54 275 4.0 8.0 0.00 0.00 0.00 63 1008.8
20260502221155 54 257 4.0 7.0 0.00 0.00 0.00 63 1008.7
20260502220909 54 250 4.0 7.0 0.00 0.00 0.00 63 1008.7
20260502220143 54 214 4.0 7.0 0.00 0.00 0.00 63 1008.7
20260502215636 54 236 3.0 7.0 0.00 0.00 0.00 63 1008.6
20260502215131 54 215 3.0 6.0 0.00 0.00 0.00 63 1008.8
20260502214625 54 226 3.0 6.0 0.00 0.00 0.00 63 1008.8
20260502214339 54 205 4.0 7.0 0.00 0.00 0.00 63 1008.8
20260502213613 54 209 4.0 7.0 0.00 0.00 0.00 63 1008.8
20260502213107 54 218 4.0 7.0 0.00 0.00 0.00 62 1008.8
20260502212601 54 217 4.0 7.0 0.00 0.00 0.00 62 1008.8
20260502212055 54 263 3.0 7.0 0.00 0.00 0.00 62 1008.8
20260502211549 54 223 3.0 5.0 0.00 0.00 0.00 63 1008.9
20260502211043 54 237 3.0 5.0 0.00 0.00 0.00 62 1008.9
20260502210537 54 240 3.0 8.0 0.00 0.00 0.00 63 1008.7
20260502210031 54 241 3.0 8.0 0.00 0.00 0.00 63 1008.7
20260502205525 54 233 5.0 8.0 0.00 0.00 0.00 62 1008.8
20260502205019 54 209 5.0 8.0 0.00 0.00 0.00 62 1008.9
20260502204513 54 221 4.0 7.0 0.00 0.00 0.00 63 1009.0
20260502204007 54 208 3.0 7.0 0.00 0.00 0.00 64 1008.9
20260502203502 54 198 3.0 7.0 0.00 0.00 0.00 65 1008.8
20260502203002 54 234 4.0 8.0 0.00 0.00 0.00 65 1008.9
20260502202502 54 211 4.0 8.0 0.00 0.00 0.00 65 1009.0
20260502202225 54 191 4.0 6.0 0.00 0.00 0.00 66 1009.0
20260502201729 54 181 4.0 6.0 0.00 0.00 0.00 65 1009.1
20260502201002 53 184 4.0 9.0 0.00 0.00 0.00 66 1009.2
20260502200501 53 184 6.0 10.0 0.00 0.00 0.00 65 1009.2
20260502200002 53 195 6.0 10.0 0.00 0.00 0.00 65 1009.3
20260502195503 54 210 5.0 7.0 0.00 0.00 0.00 66 1009.3
20260502195002 53 259 4.0 7.0 0.00 0.00 0.00 66 1009.4
20260502194502 53 215 4.0 8.0 0.00 0.00 0.00 66 1009.4
20260502194221 53 215 4.0 8.0 0.00 0.00 0.00 66 1009.4
20260502193502 53 215 5.0 9.0 0.00 0.00 0.00 66 1009.4
20260502193002 53 209 5.0 10.0 0.00 0.00 0.00 66 1009.5
20260502192503 53 200 5.0 10.0 0.00 0.00 0.00 66 1009.5
20260502192000 53 205 4.0 8.0 0.00 0.00 0.00 65 1009.6
20260502191501 53 187 4.0 8.0 0.00 0.00 0.00 65 1009.7
20260502190955 53 196 4.0 6.0 0.00 0.00 0.00 65 1009.7
20260502190449 53 215 4.0 7.0 0.00 0.00 0.00 65 1009.7
20260502185942 53 176 4.0 7.0 0.00 0.00 0.00 65 1009.8
20260502185436 53 196 4.0 7.0 0.00 0.00 0.00 65 1009.8
20260502185419 53 196 4.0 7.0 0.00 0.00 0.00 65 1010.0
20260502184425 53 178 4.0 7.0 0.00 0.00 0.00 65 1010.0
20260502183416 53 217 4.0 8.0 0.00 0.00 0.00 65 1010.0
20260502183133 53 218 4.0 8.0 0.00 0.00 0.00 65 1010.0
20260502182416 53 219 5.0 10.0 0.00 0.00 0.00 66 1010.0
20260502181916 53 207 5.0 10.0 0.00 0.00 0.00 65 1009.9
20260502181634 53 200 4.0 8.0 0.00 0.00 0.00 65 1009.8
20260502180916 53 205 4.0 9.0 0.00 0.00 0.00 65 1009.9
20260502180415 53 224 4.0 9.0 0.00 0.00 0.00 65 1010.0
20260502170416 53 246 3.0 7.0 0.00 0.00 0.00 64 1010.4
20260502163916 53 254 2.0 6.0 0.00 0.00 0.00 65 1010.3
20260502163417 53 263 3.0 7.0 0.00 0.00 0.00 65 1010.3
20260502162915 52 240 3.0 7.0 0.00 0.00 0.00 65 1010.4
20260502162416 52 234 4.0 9.0 0.00 0.00 0.00 65 1010.4
20260502161914 52 299 4.0 9.0 0.00 0.00 0.00 65 1010.4
20260502161415 52 273 4.0 8.0 0.00 0.00 0.00 65 1010.4
20260502160908 52 304 4.0 8.0 0.00 0.00 0.00 65 1010.3
20260502160628 52 270 5.0 10.0 0.00 0.00 0.00 65 1010.5
20260502151902 52 242 6.0 10.0 0.00 0.00 0.00 64 1010.8
20260502151622 52 226 5.0 10.0 0.00 0.00 0.00 64 1010.8
20260502150901 53 237 6.0 12.0 0.00 0.00 0.00 64 1010.7
20260502150623 53 195 7.0 15.0 0.00 0.00 0.00 63 1010.8
20260502150120 53 245 7.0 15.0 0.00 0.00 0.00 64 1010.8
20260502130705 54 299 2.0 4.0 0.00 0.00 0.00 60 1010.6
20260502130159 54 284 2.0 4.0 0.00 0.00 0.00 61 1010.6
20260502123628 53 0 3.0 9.0 0.00 0.00 0.00 62 1011.3
20260502123121 53 253 3.0 9.0 0.00 0.00 0.00 62 1011.3
20260502122616 53 287 3.0 9.0 0.00 0.00 0.00 62 1011.2
20260502122110 53 295 3.0 9.0 0.00 0.00 0.00 62 1011.2
20260502121604 53 325 4.0 9.0 0.00 0.00 0.00 62 1011.3
20260502121058 53 341 4.0 11.0 0.00 0.00 0.00 62 1011.4
20260502120812 53 322 4.0 11.0 0.00 0.00 0.00 61 1011.4
20260502115539 53 279 4.0 10.0 0.00 0.00 0.00 63 1011.4
20260502115306 53 287 5.0 9.0 0.00 0.00 0.00 63 1011.3
20260502115022 53 257 5.0 12.0 0.00 0.00 0.00 63 1011.2
20260502114022 52 300 6.0 12.0 0.00 0.00 0.00 63 1011.1
20260502113516 52 261 6.0 11.0 0.00 0.00 0.00 63 1011.1
20260502113017 52 286 5.0 11.0 0.00 0.00 0.00 63 1011.0
20260502112516 52 267 7.0 14.0 0.00 0.00 0.00 63 1010.9
20260502112238 52 269 7.0 14.0 0.00 0.00 0.00 63 1010.9
20260502111516 52 281 7.0 13.0 0.00 0.00 0.00 63 1010.8
20260502111016 52 248 8.0 16.0 0.00 0.00 0.00 63 1011.0
20260502110513 52 242 8.0 16.0 0.00 0.00 0.00 63 1010.9
20260502110013 52 250 7.0 12.0 0.00 0.00 0.00 63 1010.8
20260502105512 52 288 7.0 12.0 0.00 0.00 0.00 63 1010.8
20260502105010 52 216 6.0 13.0 0.00 0.00 0.00 63 1010.7
20260502104511 52 263 7.0 15.0 0.00 0.00 0.00 63 1010.6
20260502104013 52 277 7.0 15.0 0.00 0.00 0.00 63 1010.7
20260502103510 52 250 7.0 15.0 0.00 0.00 0.00 63 1010.7
20260502103011 52 255 8.0 16.0 0.00 0.00 0.00 63 1010.5
20260502102511 52 306 8.0 16.0 0.00 0.00 0.00 63 1010.4
20260502102453 52 306 8.0 17.0 0.00 0.00 0.00 63 1010.5
20260502101736 52 225 8.0 17.0 0.00 0.00 0.00 64 1010.6
20260502101012 52 250 9.0 18.0 0.00 0.00 0.00 64 1010.5
20260502100733 52 261 9.0 18.0 0.00 0.00 0.00 64 1010.4
20260502090900 51 246 7.0 17.0 0.00 0.00 0.00 62 1010.2
20260502090619 51 277 8.0 17.0 0.00 0.00 0.00 62 1010.4
20260502071349 51 259 7.0 13.0 0.00 0.00 0.00 62 1010.6
20260502070848 51 259 6.0 13.0 0.00 0.00 0.00 62 1010.5
20260502070349 51 235 6.0 13.0 0.00 0.00 0.00 62 1010.5
20260502065849 51 229 6.0 12.0 0.00 0.00 0.00 61 1010.6
20260502065348 51 240 7.0 12.0 0.00 0.00 0.00 61 1010.7
20260502064848 51 244 7.0 13.0 0.00 0.00 0.00 61 1010.7
20260502064349 51 254 6.0 14.0 0.00 0.00 0.00 61 1010.8
20260502063850 51 286 5.0 14.0 0.00 0.00 0.00 61 1010.9
20260502063343 51 267 6.0 13.0 0.00 0.00 0.00 61 1010.9
20260502062837 51 244 6.0 13.0 0.00 0.00 0.00 61 1010.9
20260502062331 51 232 5.0 11.0 0.00 0.00 0.00 61 1010.8
20260502061825 51 228 5.0 11.0 0.00 0.00 0.00 60 1010.7
20260502061320 51 258 6.0 12.0 0.00 0.00 0.00 60 1010.9
20260502060813 51 238 4.0 12.0 0.00 0.00 0.00 60 1010.9
20260502060307 52 258 4.0 11.0 0.00 0.00 0.00 60 1011.0
20260502055801 52 268 5.0 12.0 0.00 0.00 0.00 60 1011.0
20260502055300 52 202 5.0 12.0 0.00 0.00 0.00 60 1011.0
20260502054758 52 249 5.0 11.0 0.00 0.00 0.00 60 1010.9
20260502054258 52 232 5.0 11.0 0.00 0.00 0.00 60 1010.8
20260502053800 52 253 6.0 10.0 0.00 0.00 0.00 59 1011.0
20260502053256 52 257 5.0 11.0 0.00 0.00 0.00 59 1010.9
20260502052757 52 261 5.0 12.0 0.00 0.00 0.00 59 1011.2
20260502052517 52 253 4.0 12.0 0.00 0.00 0.00 59 1011.2
20260502051754 52 252 4.0 9.0 0.00 0.00 0.00 59 1011.2
20260502051255 52 218 4.0 12.0 0.00 0.00 0.00 59 1011.3
20260502050755 52 294 5.0 12.0 0.00 0.00 0.00 59 1011.4
20260502050255 52 250 5.0 14.0 0.00 0.00 0.00 59 1011.3
20260502045755 52 261 5.0 14.0 0.00 0.00 0.00 59 1011.3
20260502045253 52 330 6.0 13.0 0.00 0.00 0.00 58 1011.5
20260502044751 52 284 7.0 16.0 0.00 0.00 0.00 58 1011.6
20260502044251 52 309 7.0 16.0 0.00 0.00 0.00 58 1011.6
20260502043750 52 249 6.0 15.0 0.00 0.00 0.00 58 1011.5
20260502043251 52 272 8.0 14.0 0.00 0.00 0.00 57 1011.4
20260502043007 52 269 8.0 16.0 0.00 0.00 0.00 57 1011.3
20260502042244 52 252 8.0 16.0 0.00 0.00 0.00 57 1011.1
20260502041744 52 273 7.0 13.0 0.00 0.00 0.00 57 1011.2
20260502041244 52 263 7.0 13.0 0.00 0.00 0.00 57 1011.2
20260502040744 52 272 6.0 14.0 0.00 0.00 0.00 57 1011.2
20260502040244 52 279 6.0 14.0 0.00 0.00 0.00 57 1011.3
20260502035748 52 260 6.0 12.0 0.00 0.00 0.00 56 1011.3
20260502035243 52 279 4.0 12.0 0.00 0.00 0.00 56 1011.4
20260502034743 52 284 4.0 11.0 0.00 0.00 0.00 56 1011.4
20260502034502 52 315 3.0 11.0 0.00 0.00 0.00 56 1011.6